Location: Peterborough
(44.3091°N, 78.3197°W)
Time: 05:43:01
(UTC-04:00)

Explorer 11/Cluster Stage 4 - All Passes

Search period start: 22 March 2023 00:00
Search period end: 01 April 2023 00:00
Orbit: 466 x 1241 km, 28.8° (Epoch: 21 March)

Date Brightness Start Highest point End Pass type
(mag) Time Alt. Az. Time Alt. Az. Time Alt. Az.
22 Mar - 10:01:26 10° SSW 10:05:13 17° SSE 10:09:26 10° SE daylight
22 Mar - 11:48:01 10° SW 11:52:51 21° S 11:58:17 10° SE daylight
22 Mar - 13:36:26 10° SW 13:40:41 16° SSW 13:45:13 10° SSE daylight
23 Mar - 09:47:48 10° SSW 09:51:23 17° SSE 09:55:23 10° SE daylight
23 Mar - 11:34:26 10° SW 11:38:59 20° S 11:44:03 10° SE daylight
23 Mar - 13:23:05 10° SW 13:26:46 15° SSW 13:30:40 10° SSE daylight
24 Mar - 09:34:13 10° SSW 09:37:34 16° SSE 09:41:17 10° SE daylight
24 Mar - 11:20:57 10° SW 11:25:07 19° S 11:29:47 10° SE daylight
24 Mar - 13:09:56 10° SW 13:12:51 13° SSW 13:15:55 10° S daylight
25 Mar - 09:20:41 10° SSW 09:23:45 16° S 09:27:10 10° SE daylight
25 Mar - 11:07:31 10° SW 11:11:16 17° S 11:15:28 10° SSE daylight
25 Mar - 12:57:13 10° SSW 12:58:57 11° SSW 13:00:45 10° S daylight
26 Mar - 09:07:12 10° SSW 09:09:58 15° S 09:13:02 10° SE daylight
26 Mar - 10:54:10 10° SW 10:57:27 15° S 11:01:04 10° SSE daylight
27 Mar - 08:53:46 10° SSW 08:56:13 14° S 08:58:53 10° SE daylight
27 Mar - 10:40:57 10° SW 10:43:39 14° S 10:46:35 10° SSE daylight
28 Mar - 08:40:23 10° SSW 08:42:27 13° S 08:44:40 10° SSE daylight
28 Mar - 10:27:56 10° SSW 10:29:51 12° S 10:31:54 10° SSE daylight
29 Mar - 08:27:08 10° SSW 08:28:43 12° S 08:30:24 10° SSE daylight
30 Mar - 08:14:05 10° S 08:14:59 11° S 08:15:54 10° SSE daylight
